DateTimeUTC,F1_A11,F1_S11,BsB_S11,BsG_S11,BsR_S11,BbsB_S11,BbsG_S11,BbsR_S11,BaB_A11,BaG_A11,BaR_A11,Tu_S11,T_S11,Uu_S11,U_S11,P_S11,T1_A11
2021-06-05T05:00:00Z,00000200,20000000,,,,,,,-000.32,0000.12,-000.14,16.4,23.3,05.7,03.7,0675.4,30.8
2021-06-05T05:01:00Z,00000200,20000000,,,,,,,0000.40,0000.09,0000.11,16.3,23.3,05.7,03.7,0675.4,30.8
2021-06-05T05:02:00Z,00000200,20000000,,,,,,,-000.11,-000.09,0000.22,16.3,23.4,05.7,03.7,0675.4,30.8
2021-06-05T05:03:00Z,00000200,60000000,,,,,,,0000.67,0000.08,0000.14,16.3,23.4,05.7,03.7,0675.4,30.8
2021-06-05T05:04:00Z,00000200,40000000,0001.23,0000.70,0000.67,0000.72,0000.25,0000.23,0000.24,0000.64,0000.51,16.5,23.1,05.7,03.7,0676.3,30.8
2021-06-05T05:05:00Z,00000200,00000000,0001.48,0001.36,0000.87,0000.25,0000.31,0000.37,0000.90,0000.62,0000.80,16.5,23.1,05.8,03.8,0676.4,30.8
2021-06-05T05:06:00Z,00000200,00000000,0002.49,0001.29,0000.91,0000.41,0000.31,0000.24,0000.69,0001.26,0000.21,16.5,23.1,05.9,03.9,0676.4,30.8
2021-06-05T05:07:00Z,00000200,00000000,0001.91,0001.03,0000.89,0000.95,0000.37,0000.35,0000.87,0000.49,0000.99,16.6,23.1,05.8,03.9,0676.4,30.8
2021-06-05T05:08:00Z,00000200,00000000,0001.82,0001.03,0000.65,0000.57,0000.34,0000.10,0000.43,0000.57,-000.01,16.7,23.1,05.9,03.9,0676.4,30.9
2021-06-05T05:09:00Z,00000200,00000000,0001.79,0000.96,0000.85,0000.85,0000.13,0000.18,-000.13,-000.34,0000.11,16.8,23.2,05.9,04.0,0676.5,30.9
2021-06-05T05:10:00Z,00000200,00000000,0001.64,0001.16,0000.87,0000.15,0000.18,0000.01,0000.46,0000.98,0000.53,16.8,23.2,05.8,03.9,0676.4,30.9
2021-06-05T05:11:00Z,00000200,00000000,0002.23,0000.99,0000.47,0000.55,0000.01,0000.15,0000.94,0000.70,0000.59,16.9,23.2,05.9,03.9,0676.4,30.9
2021-06-05T05:12:00Z,00000200,00000000,0002.04,0001.21,0000.59,0000.63,0000.25,0000.32,0000.42,0000.07,-000.04,16.9,23.2,05.9,04.0,0676.4,30.9
2021-06-05T05:13:00Z,00000200,00000000,0001.89,0001.29,0000.73,0000.65,0000.03,-000.10,0000.25,0000.13,0000.04,16.9,23.3,05.9,04.0,0676.4,30.9
2021-06-05T05:14:00Z,00000200,00000000,0001.61,0001.06,0000.92,0000.88,0000.46,0000.33,0000.55,0000.71,0000.51,16.9,23.2,05.8,03.9,0676.4,30.9
2021-06-05T05:15:00Z,00000200,00000000,0002.13,0001.17,0000.82,0001.05,0000.31,0000.17,0000.49,0000.44,0000.70,16.9,23.2,05.9,04.0,0676.4,30.9
2021-06-05T05:16:00Z,00000200,00000000,0002.20,0000.96,0000.91,0000.35,0000.14,0000.25,0000.47,0000.41,0000.17,16.9,23.2,05.9,04.0,0676.4,30.9
2021-06-05T05:17:00Z,00000200,00000000,0002.53,0001.20,0000.60,0000.68,0000.39,0000.24,0000.64,0000.60,0000.23,16.9,23.2,05.9,04.0,0676.4,30.9
2021-06-05T05:18:00Z,00000200,00000000,0001.80,0000.97,0001.13,0000.76,0000.26,0000.13,0000.70,0000.61,0000.57,16.9,23.2,05.9,04.0,0676.4,30.9
2021-06-05T05:19:00Z,00000200,00000000,0001.24,0001.22,0000.76,0000.70,0000.20,0000.06,0000.20,0000.14,-000.01,16.9,23.2,05.9,04.0,0676.4,30.9
2021-06-05T05:20:00Z,00000200,00000000,0001.74,0001.20,0000.85,0000.29,0000.02,0000.08,0000.61,0000.62,0000.50,16.8,23.2,05.9,04.0,0676.4,30.9
2021-06-05T05:21:00Z,00000200,00000000,0001.71,0001.41,0000.77,0000.53,0000.27,0000.10,0000.61,0000.18,0000.42,16.9,23.2,06.0,04.0,0676.4,30.9
2021-06-05T05:22:00Z,00000200,00000000,0002.12,0001.01,0000.76,0000.56,0000.07,0000.19,0000.50,0000.69,0000.31,16.9,23.2,05.9,04.0,0676.4,30.9
2021-06-05T05:23:00Z,00000200,00000000,0001.48,0001.04,0000.61,0001.06,0000.13,-000.33,0000.30,0000.55,0000.39,16.8,23.2,06.0,04.0,0676.4,30.9
2021-06-05T05:24:00Z,00000200,00000000,0002.00,0001.28,0000.75,-000.19,0000.37,-000.14,0000.87,0000.75,0000.30,16.8,23.2,06.0,04.1,0676.4,30.9
2021-06-05T05:25:00Z,00000200,00000000,0001.60,0001.15,0000.84,0000.48,0000.42,0000.19,0000.18,0000.13,0000.29,16.8,23.2,06.0,04.0,0676.4,30.9
2021-06-05T05:26:00Z,00000200,00000000,0002.02,0001.29,0000.66,0000.31,0000.48,0000.08,0000.82,0000.70,0000.42,16.8,23.2,06.1,04.1,0676.4,30.9
2021-06-05T05:27:00Z,00000200,00000000,0001.77,0001.24,0000.86,0000.53,0000.27,-000.01,0000.56,0000.39,0000.72,16.9,23.2,06.2,04.2,0676.4,30.9
2021-06-05T05:28:00Z,00000200,00000000,0001.67,0001.40,0000.57,0000.29,0000.61,0000.13,0000.56,0000.21,0000.20,16.8,23.2,06.1,04.1,0676.4,30.9
2021-06-05T05:29:00Z,00000200,00000000,0002.09,0001.17,0000.86,0000.79,0000.28,0000.18,0000.34,0000.77,0000.24,16.8,23.2,06.1,04.1,0676.4,30.9
2021-06-05T05:30:00Z,00000200,00000000,0001.63,0001.16,0000.57,0000.51,0000.18,0000.14,0000.85,0000.38,0000.56,16.8,23.2,06.1,04.1,0676.3,30.9
2021-06-05T05:31:00Z,00000200,00000000,0001.42,0001.27,0000.69,0000.19,0000.33,-000.18,0000.30,0000.57,0000.47,16.8,23.2,06.1,04.1,0676.4,30.9
2021-06-05T05:32:00Z,00000200,00000000,0001.43,0001.18,0000.92,0000.80,0000.32,0000.10,0000.79,0000.56,0000.37,16.8,23.2,06.2,04.1,0676.4,30.9
2021-06-05T05:33:00Z,00000200,00000000,0001.57,0001.01,0000.59,0000.50,0000.30,0000.05,0000.27,0000.54,0000.15,16.8,23.2,06.3,04.2,0676.4,30.9
2021-06-05T05:34:00Z,00000200,00000000,0001.57,0001.60,0000.69,0000.53,0000.28,0000.05,0000.52,0000.74,0000.30,16.8,23.2,06.3,04.2,0676.4,30.8
2021-06-05T05:35:00Z,00000200,00000000,0002.11,0001.12,0000.70,0000.82,0000.09,-000.10,0000.83,0000.46,0000.73,16.8,23.2,06.3,04.2,0676.4,30.9
2021-06-05T05:36:00Z,00000200,00000000,0002.31,0001.14,0000.68,0000.70,0000.22,-000.03,0000.70,0000.47,0000.47,16.8,23.2,06.4,04.3,0676.4,30.9
2021-06-05T05:37:00Z,00000200,00000000,0001.51,0001.04,0000.89,0000.06,0000.14,0000.05,0000.53,0000.19,0000.52,16.8,23.2,06.3,04.2,0676.4,30.9
2021-06-05T05:38:00Z,00000200,00000000,0001.65,0001.12,0000.88,0000.42,0000.04,0000.20,0000.38,0000.77,0000.02,16.8,23.2,06.3,04.3,0676.4,30.8
2021-06-05T05:39:00Z,00000200,00000000,0002.30,0001.17,0000.88,0000.71,-000.06,-000.05,0000.84,0000.03,0000.42,16.8,23.2,06.3,04.2,0676.4,30.8
2021-06-05T05:40:00Z,00000200,00000000,0001.92,0001.06,0000.76,0000.45,0000.28,0000.33,0000.14,0000.98,0000.42,16.8,23.2,06.4,04.3,0676.4,30.8
2021-06-05T05:41:00Z,00000200,00000000,0001.30,0001.38,0000.53,0000.41,0000.26,-000.00,0000.53,0000.21,0000.21,16.8,23.2,06.3,04.3,0676.4,30.8
2021-06-05T05:42:00Z,00000200,00000000,0001.86,0001.30,0000.72,0000.51,0000.25,-000.03,0000.59,0000.72,0000.32,16.8,23.2,06.4,04.3,0676.4,30.8
2021-06-05T05:43:00Z,00000200,00000000,0002.07,0001.09,0000.94,0000.85,0000.18,0000.12,0000.86,0000.55,0000.64,16.8,23.2,06.4,04.3,0676.3,30.8
2021-06-05T05:44:00Z,00000200,00000000,0002.36,0001.18,0000.65,0000.52,0000.43,0000.06,0000.24,0000.56,0000.44,16.8,23.2,06.4,04.3,0676.4,30.8
2021-06-05T05:45:00Z,00000200,00000000,0001.91,0001.46,0000.61,0000.75,0000.36,0000.43,0000.53,0000.36,0000.27,16.8,23.2,06.3,04.3,0676.3,30.9
2021-06-05T05:46:00Z,00000200,00000000,0002.00,0001.47,0000.72,0000.44,0000.16,0000.04,0000.64,0000.73,0000.72,16.8,23.2,06.4,04.3,0676.3,30.9
2021-06-05T05:47:00Z,00000200,00000000,0001.62,0001.18,0000.37,0000.43,0000.23,0000.23,0000.21,0000.31,-000.08,16.8,23.2,06.4,04.3,0676.4,30.8
2021-06-05T05:48:00Z,00000200,00000000,0002.17,0001.11,0000.78,0000.50,0000.07,0000.16,0001.10,0000.28,0000.79,16.8,23.2,06.5,04.4,0676.4,30.9
2021-06-05T05:49:00Z,00000200,00000000,0002.17,0001.10,0000.83,0000.54,0000.20,0000.10,0000.16,0000.67,0000.05,16.8,23.2,06.4,04.3,0676.3,30.9
2021-06-05T05:50:00Z,00000200,00000000,0001.71,0001.32,0000.95,0000.25,0000.22,0000.18,0000.55,0000.48,0000.50,16.8,23.2,06.4,04.3,0676.3,30.9
2021-06-05T05:51:00Z,00000200,00000000,0001.93,0001.06,0000.76,0000.94,0000.18,0000.22,0000.56,0000.46,0000.24,16.8,23.2,06.5,04.4,0676.3,30.9
2021-06-05T05:52:00Z,00000200,00000000,0001.22,0001.04,0000.60,0000.34,0000.06,0000.06,0000.88,0000.48,0000.35,16.8,23.2,06.4,04.3,0676.4,30.9
2021-06-05T05:53:00Z,00000200,00000000,0001.38,0001.47,0000.83,0000.34,0000.12,0000.00,0000.18,0000.34,0000.40,16.8,23.2,06.5,04.4,0676.4,30.9
2021-06-05T05:54:00Z,00000200,00000000,0001.89,0000.96,0000.83,0000.57,0000.11,0000.11,0000.35,0000.32,0000.20,16.8,23.2,06.5,04.4,0676.4,30.9
2021-06-05T05:55:00Z,00000200,00000000,0002.33,0001.02,0000.71,0000.23,0000.52,0000.08,0000.63,0000.55,0000.30,16.8,23.2,06.4,04.3,0676.5,30.9
2021-06-05T05:56:00Z,00000200,00000000,0001.32,0000.87,0000.68,0000.18,0000.07,-000.01,0000.45,0000.21,0000.37,16.8,23.2,06.5,04.4,0676.5,30.9
2021-06-05T05:57:00Z,00000200,40000000,,,,,,,-000.21,-000.24,0000.05,16.9,23.2,06.1,04.1,0676.4,30.9
2021-06-05T05:58:00Z,00000200,60000000,,,,,,,0000.14,0000.52,0000.16,16.6,23.3,06.5,04.3,0675.5,30.9
2021-06-05T05:59:00Z,00000200,20000000,,,,,,,-000.07,-000.29,-000.11,16.6,23.4,06.5,04.3,0675.5,30.9
